Theta_e
285 280 277 278 279 279 280 280 282 282 282 281 280 280 279 279 280 282 284 287 288 286 284 286 287 288 289 289 290 291 290 292 294 295 304 311 313 318 320 322 324 325 326 330 331 330 331 331 330 331 331 332 332 333 333 332 332 332 333 334 333 334 336 337 337 335 335 335 335 336 336 336 336 335 335 335 334 334 334 335 334 334 334 334 336 336
285 278 278 280 280 281 282 281 282 281 281 280 279 279 278 279 278 282 284 288 289 285 282 284 285 285 286 288 289 291 291 292 291 292 297 308 313 317 320 321 323 325 328 327 328 329 329 329 329 331 331 331 330 332 333 332 332 333 333 333 334 334 335 336 336 335 334 335 336 336 336 337 335 334 334 333 332 334 334 334 334 334 334 335 336 336
280 278 280 281 282 282 282 281 281 280 280 279 279 278 277 277 280 283 284 286 288 286 283 285 284 284 285 287 289 290 291 293 294 294 295 302 311 315 319 321 322 323 324 326 327 328 329 329 328 330 330 331 332 332 332 333 332 333 333 334 334 334 334 335 336 335 334 334 334 335 332 335 333 333 336 335 334 335 333 333 333 334 334 335 336 337
278 278 281 284 283 281 281 281 280 280 280 278 278 276 276 280 279 276 280 283 285 285 281 283 283 284 285 287 289 290 291 292 293 293 293 301 306 313 317 320 321 322 323 324 326 327 329 328 328 329 330 330 331 332 332 333 332 333 333 333 334 333 333 334 335 336 334 334 333 334 335 335 335 332 334 332 333 332 332 332 333 333 334 336 336 337
280 282 282 282 281 281 281 280 280 279 277 279 279 278 277 278 279 279 280 283 284 286 286 284 282 282 283 284 286 289 291 293 294 295 293 296 305 311 317 321 322 322 323 324 326 327 328 327 327 328 330 331 331 331 332 333 333 333 333 333 333 333 333 334 335 335 334 335 333 333 334 334 332 333 332 331 331 331 333 333 333 333 335 337 337 337
280 284 285 283 282 281 280 279 279 279 276 277 279 280 280 281 280 280 281 281 279 279 284 283 275 277 279 283 285 288 289 290 292 292 293 293 298 307 312 317 321 323 324 325 326 327 328 328 328 329 329 330 330 331 333 334 334 334 334 334 333 333 333 333 334 335 335 334 333 332 332 330 331 330 329 329 330 331 331 332 335 335 336 336 336 337
282 285 284 282 282 281 280 279 280 280 277 276 276 281 282 281 281 280 279 280 274 274 281 284 278 274 277 281 284 286 287 289 290 290 292 292 295 301 312 318 320 322 322 324 327 329 328 328 328 328 329 330 330 332 333 334 334 334 334 334 333 332 332 333 334 334 335 333 333 333 333 333 332 331 332 331 332 333 334 334 334 335 336 336 335 335
283 282 282 283 281 280 279 277 279 281 277 274 278 280 281 280 280 280 280 279 277 280 282 282 281 275 273 279 284 286 286 287 289 291 291 292 292 297 306 317 321 322 323 323 325 327 329 329 329 328 329 330 331 332 333 333 334 333 333 333 333 333 333 333 334 334 335 334 333 333 332 333 331 332 330 330 331 333 334 333 333 334 334 334 334 333
283 282 282 281 281 280 279 281 282 281 278 277 281 282 281 281 281 281 280 278 278 277 275 279 281 276 275 279 284 286 284 284 286 288 291 292 292 294 300 311 321 324 324 324 325 327 328 329 329 329 329 331 331 332 332 333 333 334 333 333 332 332 332 333 334 334 335 335 334 333 333 332 331 331 330 330 332 332 333 332 332 333 332 332 332 332
284 285 284 284 282 279 281 282 283 281 279 281 283 284 283 282 281 281 278 278 278 275 271 277 279 275 274 278 282 285 284 285 286 288 290 291 291 292 297 303 314 322 324 325 326 327 329 330 330 330 331 330 331 332 333 333 333 333 333 332 331 331 332 333 334 334 334 334 334 333 332 331 330 331 329 330 330 332 333 331 331 331 330 329 328 328
286 291 293 285 281 283 284 285 285 284 284 284 284 282 280 279 278 280 278 277 276 268 274 279 279 278 273 277 281 282 283 286 287 288 290 291 293 292 294 300 308 319 323 325 325 327 329 331 331 331 329 330 330 331 332 332 332 332 332 332 331 331 332 333 333 334 334 334 334 333 332 332 330 330 330 329 330 331 331 329 329 329 328 327 326 326
284 284 284 284 290 287 286 284 286 286 284 284 281 280 277 277 277 276 276 277 269 268 275 278 278 279 273 276 281 285 286 288 289 288 290 290 290 292 292 297 305 314 322 325 326 326 328 329 330 330 329 329 329 329 330 331 332 332 332 331 330 330 331 332 333 334 333 334 334 334 333 332 332 331 331 330 329 330 330 329 327 327 325 324 323 322
279 282 284 284 293 287 283 282 283 284 284 282 279 278 275 269 270 266 273 266 266 271 274 276 278 276 276 278 281 284 286 288 289 289 291 291 291 291 292 294 300 309 318 324 326 326 327 328 329 329 330 330 329 329 330 330 331 331 331 331 330 329 331 332 333 333 333 333 333 333 333 332 332 331 331 331 330 331 331 329 327 325 324 322 321 321
278 280 281 282 284 289 286 280 278 278 280 280 278 275 274 268 265 259 265 270 273 274 276 276 278 275 278 281 286 287 288 289 290 291 292 292 292 292 293 293 296 303 313 321 325 326 327 329 329 330 330 330 330 329 330 330 330 331 331 330 330 329 330 332 332 333 332 333 333 333 333 333 332 331 331 331 331 331 331 329 327 326 324 322 323 320
271 274 278 281 278 284 286 284 283 279 278 280 280 279 276 274 269 262 268 264 268 272 275 278 276 271 275 277 286 288 290 291 291 292 291 292 292 293 293 294 295 297 304 316 324 327 327 328 329 330 330 330 330 330 330 330 330 330 330 329 329 329 330 331 332 332 332 333 333 333 334 333 333 332 332 331 331 331 329 328 327 326 324 323 321 320
278 277 280 283 284 284 282 285 285 283 281 283 282 282 277 275 277 272 272 274 273 273 272 275 273 276 281 284 289 289 288 289 291 291 291 291 292 293 294 294 295 296 299 308 320 326 328 329 330 330 330 330 330 330 330 329 330 330 330 330 330 330 330 331 332 332 332 332 333 333 333 332 333 332 332 331 330 330 329 327 327 325 323 322 319 318
277 275 280 282 284 284 285 286 286 285 273 279 282 277 280 284 281 273 270 275 273 270 268 272 277 280 282 285 287 288 288 289 288 288 290 291 292 294 294 295 295 297 298 303 315 324 328 329 330 331 331 330 330 330 329 329 330 330 330 329 329 329 330 331 332 332 332 332 332 332 332 332 332 332 331 331 330 329 328 326 325 323 322 320 319 318
277 276 280 281 281 284 285 286 286 285 284 280 276 281 284 287 285 278 271 267 269 266 267 274 275 276 278 274 285 286 287 288 288 289 290 291 292 293 294 294 295 298 300 302 309 320 327 329 330 331 331 331 330 330 330 330 330 330 331 330 329 329 329 330 331 332 332 331 331 331 332 332 332 332 332 331 330 329 327 325 324 323 321 319 319 318
281 275 279 282 283 285 286 285 283 285 286 282 280 285 280 272 273 276 272 266 268 266 265 272 275 275 276 279 281 285 286 286 287 288 289 291 292 293 295 296 295 297 300 304 306 313 324 328 330 330 331 332 331 331 331 331 330 330 330 330 330 329 330 331 332 332 332 332 332 332 332 331 332 332 332 331 330 328 327 325 324 323 322 320 319 318
283 274 277 282 282 283 282 282 275 279 283 285 286 283 285 282 279 276 272 273 273 265 266 269 274 274 280 280 283 284 285 288 289 290 292 292 294 295 295 296 297 298 303 306 310 312 319 327 330 330 331 331 331 331 331 331 330 330 330 330 329 330 330 331 331 332 331 332 332 331 331 332 332 332 331 330 329 327 326 325 323 322 321 319 318 317
279 282 272 279 283 282 277 279 276 278 277 278 278 278 281 282 283 281 277 275 272 266 263 264 267 273 279 284 286 286 288 290 291 292 292 294 295 295 297 299 300 300 301 306 312 315 318 324 329 331 331 332 332 332 331 331 330 330 330 329 329 328 329 330 331 332 332 332 332 332 331 331 331 330 331 329 329 328 326 325 323 322 321 319 317 315
280 280 276 280 279 279 279 281 280 279 279 276 278 278 280 278 276 274 271 279 277 275 270 266 268 274 281 289 289 289 291 291 293 293 293 294 296 297 300 301 301 302 302 304 310 317 319 322 328 330 332 332 332 331 331 331 330 330 329 330 329 329 329 330 331 331 332 332 332 331 331 331 331 331 330 329 328 327 326 325 324 322 320 319 317 315
286 282 280 276 279 280 283 284 283 283 283 282 280 277 279 279 279 276 268 271 276 277 278 276 273 272 284 291 290 291 291 293 293 294 294 295 296 298 300 301 302 302 303 305 307 314 320 323 326 329 330 331 331 331 331 331 331 330 330 330 329 329 329 331 331 332 332 332 332 331 331 331 331 330 329 329 328 327 326 325 323 322 321 319 316 315
292 282 279 280 282 284 287 288 288 287 285 282 282 283 282 278 281 279 277 275 274 275 273 271 271 272 284 292 291 291 292 293 293 293 293 294 296 298 299 300 301 302 304 306 308 313 319 324 326 328 329 330 330 330 330 331 331 331 331 330 330 329 329 330 331 332 332 332 331 331 331 330 330 330 329 328 328 327 326 324 323 322 321 317 315 314
282 283 280 277 276 277 279 282 282 284 284 280 278 280 283 281 280 281 281 279 273 275 275 271 268 271 282 290 290 290 290 291 292 293 294 294 295 297 299 300 302 302 303 305 307 312 318 323 325 326 328 329 330 330 331 331 331 331 331 331 330 330 330 331 331 332 332 332 330 330 330 329 329 328 328 327 327 326 325 323 322 321 319 317 315 314
285 282 279 274 272 269 268 268 271 276 279 279 280 280 282 281 279 278 274 275 271 274 276 271 271 278 284 288 289 291 290 291 292 293 294 294 294 297 299 300 301 302 302 304 307 312 317 322 325 326 328 329 330 330 331 331 331 331 331 331 331 330 330 331 332 332 332 331 330 329 329 329 328 328 327 327 326 325 324 323 322 320 319 317 314 312
284 285 282 281 279 277 279 279 281 283 279 278 278 281 280 281 281 280 277 273 273 274 275 276 277 279 282 285 287 289 289 289 290 292 292 293 294 296 298 300 301 301 302 304 307 312 318 321 324 326 328 329 330 331 331 331 331 331 331 331 331 331 331 331 331 332 331 331 330 329 328 328 328 327 327 326 325 325 324 322 321 320 317 316 314 312
285 282 283 282 282 283 284 283 283 284 279 279 278 279 281 280 280 279 275 275 278 277 274 279 281 281 282 285 286 287 289 289 290 291 292 293 295 297 299 300 302 302 303 306 309 313 318 321 324 326 327 329 330 331 331 332 332 332 331 331 332 332 332 332 331 331 331 330 329 329 328 328 328 327 327 326 325 324 323 322 320 318 316 316 314 313
284 280 283 283 283 285 286 285 286 283 282 281 280 278 279 280 279 278 278 278 280 275 274 278 280 281 283 285 287 288 289 290 290 291 293 294 296 298 299 299 299 301 304 306 309 314 319 321 324 326 327 329 330 330 331 331 332 332 332 332 332 332 332 332 331 331 331 330 329 328 329 328 327 327 326 325 324 323 322 320 319 317 316 315 314 313
286 281 282 284 283 284 285 285 286 283 283 282 281 281 280 279 279 280 279 280 280 280 281 281 282 282 285 286 288 290 291 291 291 293 295 296 297 298 298 298 300 302 303 305 309 316 320 323 324 326 327 328 329 330 331 331 331 332 332 332 332 332 332 332 331 331 330 329 329 329 328 327 327 326 325 323 322 322 320 318 317 317 316 315 314 312
286 282 286 284 282 282 284 285 283 282 281 280 281 282 282 280 280 280 280 281 283 281 282 282 281 282 288 289 289 291 290 292 295 296 296 297 297 297 298 299 300 302 303 305 310 317 321 323 325 326 327 328 329 330 331 331 332 332 332 332 332 332 333 333 331 331 330 329 329 328 327 326 326 325 323 323 322 321 319 318 317 316 315 314 313 311
287 283 287 284 280 280 283 282 281 281 281 279 280 280 281 279 277 279 279 282 281 280 281 281 280 281 287 288 288 289 292 295 295 296 296 297 297 298 298 299 300 302 303 305 312 319 322 323 325 326 327 328 330 331 331 331 332 332 331 332 332 332 333 332 331 330 330 330 328 327 326 326 325 323 322 322 321 320 319 318 317 315 314 313 312 311
286 285 283 283 281 279 280 278 281 281 281 279 280 282 283 282 281 282 282 284 285 284 281 278 281 286 286 292 289 290 290 293 295 296 296 297 297 298 299 300 301 302 303 305 311 319 322 324 325 327 328 329 330 331 332 332 331 331 332 332 333 333 332 332 331 330 329 329 328 327 326 325 323 322 321 320 320 319 318 317 316 315 314 313 312 310
287 286 284 286 282 281 282 279 281 280 272 272 281 286 287 283 282 280 280 282 284 285 283 285 286 288 289 290 288 289 290 292 295 297 298 297 298 299 300 301 302 303 304 306 311 320 323 325 327 328 329 330 331 332 332 332 332 332 333 333 333 332 332 331 330 330 328 328 327 326 326 324 323 321 320 320 319 318 317 316 315 315 314 313 311 309
287 287 285 287 283 281 278 278 276 270 274 283 287 290 289 288 286 284 284 285 286 287 287 286 287 287 289 290 290 291 293 296 298 299 300 302 300 300 300 301 302 302 303 306 311 320 324 325 327 328 328 330 331 331 331 331 332 332 332 332 332 332 331 331 330 329 328 327 326 326 325 324 323 321 320 319 318 318 317 316 315 314 313 312 310 309
286 286 286 285 283 282 278 276 269 271 281 285 289 294 294 288 287 286 284 287 288 287 288 287 288 290 291 291 293 294 296 299 302 303 303 304 303 301 300 301 302 303 303 306 311 320 324 325 326 328 329 330 330 330 331 331 332 331 331 332 331 331 331 330 329 328 327 326 325 325 324 323 322 320 320 319 318 317 316 316 315 313 313 311 310 309
292 291 287 284 287 281 281 278 279 282 286 286 286 290 291 291 291 284 280 284 289 290 290 290 291 291 292 293 295 301 304 303 301 301 305 306 304 302 302 302 303 304 305 307 313 321 326 327 327 328 329 329 330 330 330 331 331 331 330 330 330 330 330 329 328 327 326 325 325 324 324 323 322 320 319 318 317 317 316 315 314 313 312 310 309 308
296 288 288 285 283 282 282 280 277 273 273 280 286 291 294 296 298 296 292 288 295 299 301 301 300 300 301 302 303 303 302 299 296 297 303 304 302 304 305 305 306 307 308 310 314 321 325 326 326 326 328 329 329 330 331 330 330 330 329 329 329 329 328 328 327 327 325 325 324 324 324 323 321 319 318 318 317 317 316 315 314 313 312 310 308 307
294 292 290 286 284 285 283 278 275 274 278 285 290 293 296 300 299 297 290 284 292 298 301 301 300 302 302 302 302 304 302 296 295 299 304 302 303 305 307 310 313 314 314 313 316 322 324 325 326 326 327 327 327 329 330 330 330 329 328 328 328 328 327 327 327 326 325 324 324 324 324 322 321 319 318 318 317 317 316 315 314 313 312 311 310 308
289 285 285 284 283 283 281 280 278 276 279 288 292 295 299 300 300 293 280 279 290 300 302 302 301 302 303 303 303 303 301 295 298 302 307 309 310 309 308 309 311 314 314 315 318 321 323 323 323 324 326 326 327 329 329 329 329 327 327 327 328 327 326 327 327 327 326 325 324 324 323 321 319 318 318 318 317 316 315 315 313 312 311 310 310 307
285 284 285 283 282 282 281 279 276 279 285 290 294 297 299 299 293 282 278 285 299 302 303 303 303 303 304 303 303 300 304 306 307 309 310 310 309 309 309 310 311 312 314 317 317 315 322 324 325 325 326 327 328 329 329 328 327 326 326 327 327 326 327 328 327 326 325 324 323 322 321 320 319 318 317 317 316 315 314 313 312 311 311 309 308 307
286 285 285 285 284 282 281 278 279 280 287 295 298 298 299 292 282 281 292 302 302 302 303 304 304 305 304 304 304 304 305 307 308 309 309 309 308 309 310 309 310 312 313 314 315 320 323 323 323 324 325 327 328 328 328 328 326 325 325 326 326 327 328 326 325 324 323 323 322 321 320 319 318 318 317 317 316 315 314 313 313 311 311 309 307 306
285 283 284 284 286 284 280 281 279 279 287 297 297 296 300 287 287 298 300 302 304 303 303 304 304 305 305 304 305 305 306 307 308 308 309 308 308 308 308 308 310 312 312 314 317 319 322 322 323 324 324 325 325 326 327 327 324 324 323 325 326 326 325 324 324 323 322 321 320 319 318 318 317 316 317 316 315 314 312 311 311 310 309 308 307 305
292 285 285 285 288 283 284 282 282 288 294 299 298 290 296 299 302 302 302 300 303 304 304 304 304 306 306 305 306 306 307 307 308 308 308 309 310 310 309 308 309 312 313 315 317 317 318 321 322 323 323 324 324 325 327 327 324 322 322 324 324 324 323 323 323 322 320 318 319 318 317 316 316 316 316 315 314 313 311 310 310 309 308 307 306 305
293 289 290 286 291 287 285 285 292 296 298 300 300 300 301 303 305 305 304 303 302 303 306 304 304 305 306 306 307 307 307 307 307 308 308 309 310 311 311 308 309 311 313 315 316 315 317 319 319 321 322 323 323 324 325 326 324 320 321 322 322 322 322 322 321 320 319 319 318 317 316 316 315 315 315 314 313 311 310 310 309 308 308 307 306 305
296 297 297 294 292 294 295 296 298 298 299 301 303 304 303 304 306 306 305 303 304 305 306 305 306 307 307 308 307 307 307 307 307 309 309 310 310 312 312 312 310 310 312 314 316 317 319 320 319 319 318 321 322 323 323 324 322 319 321 322 322 323 322 321 320 318 318 317 317 316 315 314 315 315 314 313 313 311 311 310 309 308 307 307 306 306
294 296 294 290 292 289 285 292 296 297 299 301 302 304 306 306 305 306 305 304 304 305 306 307 307 307 307 308 308 307 307 308 308 309 310 310 311 312 313 313 313 314 315 315 315 315 318 318 318 318 318 318 319 320 321 322 322 323 322 322 323 323 321 320 318 316 316 315 315 314 314 314 314 313 313 313 312 312 311 310 310 308 306 307 306 305
287 296 292 290 290 286 287 293 295 299 300 302 302 301 302 304 306 306 306 306 306 306 306 307 307 305 306 307 308 307 307 308 308 308 310 311 311 311 312 313 313 314 315 316 316 317 317 318 318 317 317 318 320 322 322 323 323 324 322 322 321 321 320 318 317 316 316 315 314 313 313 313 303 309 312 312 312 311 310 310 309 308 307 307 307 305
292 295 287 291 287 290 291 294 297 299 300 302 303 304 304 305 305 305 306 306 306 305 305 306 306 306 306 307 308 307 307 308 308 308 309 310 311 311 311 312 313 313 314 316 316 316 318 318 317 318 317 318 320 321 322 322 323 324 322 321 321 321 319 317 313 315 315 314 313 312 310 312 311 312 312 312 311 311 311 310 309 309 309 309 310 308
292 288 292 290 285 284 286 290 294 290 290 298 301 303 304 306 306 305 305 305 305 304 305 304 305 307 308 309 307 307 307 307 308 308 309 310 310 310 311 312 312 313 314 314 316 316 317 317 318 318 318 319 320 320 320 321 322 322 322 322 320 319 317 314 314 315 313 313 313 312 311 311 311 312 311 311 311 309 306 297 302 307 309 308 302 301
290 291 290 286 285 285 291 294 296 297 298 299 302 304 305 306 305 304 304 304 304 305 305 304 304 306 307 308 309 308 307 307 307 309 309 309 309 311 311 311 311 312 313 314 315 315 315 316 317 318 316 318 320 320 320 320 321 321 321 321 319 318 316 315 314 313 313 312 312 310 311 311 311 312 312 311 310 309 306 304 298 292 297 300 298 298
Wind_Speed
1 1 4 6 2 2 2 4 5 2 2 4 2 1 3 4 5 4 6 7 3 5 6 8 10 9 7 4 5 5 4 5 5 5 7 7 9 10 10 11 12 12 14 14 10 6 9 9 8 9 10 11 11 10 11 11 11 11 10 9 9 7 8 8 8 8 8 9 8 8 8 8 6 6 6 6 5 6 5 6 6 6 6 6 7 6
2 3 4 0 3 3 5 4 1 1 2 3 4 3 5 3 7 3 5 10 5 0 5 6 8 8 6 6 6 5 5 11 9 6 7 9 9 10 13 13 12 13 10 3 6 8 9 9 11 11 11 13 15 13 13 14 13 10 10 11 10 9 9 9 9 8 7 6 6 6 6 5 5 6 7 6 5 6 5 6 7 6 6 7 7 7
1 5 4 5 7 4 3 3 3 4 4 3 4 4 4 6 5 6 7 6 10 3 9 11 10 8 6 6 7 5 8 9 9 9 9 11 10 9 10 14 13 10 10 6 5 9 11 11 11 10 10 12 15 14 13 11 11 12 12 11 10 9 10 9 9 8 7 5 4 5 4 6 4 2 4 5 5 5 6 6 6 6 6 7 7 7
6 3 7 7 1 1 1 3 3 3 1 4 3 2 7 2 1 6 3 2 3 3 4 4 10 10 5 6 9 10 8 8 8 8 9 9 13 13 12 11 13 14 13 9 11 13 12 13 13 11 11 12 11 12 12 13 14 12 11 11 11 10 10 9 9 8 6 5 4 4 6 6 6 5 3 3 4 5 7 6 6 5 6 7 7 8
8 6 4 1 2 3 5 4 1 2 5 3 5 4 5 3 4 7 3 3 5 10 6 6 8 9 3 4 5 7 9 6 7 6 5 4 7 10 11 11 12 16 15 13 11 9 10 13 14 15 15 13 14 14 15 16 15 12 14 12 12 11 10 9 9 9 7 7 6 5 5 5 5 4 5 4 4 5 6 7 6 6 7 7 7 7
8 12 5 3 5 4 5 6 6 6 5 2 5 10 9 6 7 6 6 3 3 7 5 4 6 9 3 5 8 7 6 8 5 6 10 7 7 7 8 10 11 10 12 18 16 15 16 17 15 13 13 14 13 14 15 15 15 12 12 12 12 10 10 10 10 10 9 8 9 8 9 9 7 6 7 9 8 7 7 7 5 6 6 7 8 7
6 1 5 5 6 6 4 6 5 6 6 2 5 8 10 9 8 7 6 2 4 7 4 6 11 7 5 2 3 5 5 10 7 5 8 6 6 7 10 10 11 12 10 9 12 15 15 14 14 15 15 16 16 16 14 13 13 13 13 13 12 11 10 10 9 11 10 9 9 11 10 9 9 9 6 4 5 7 6 6 7 7 6 7 7 6
1 3 3 1 3 5 4 5 3 7 4 3 4 4 5 5 7 8 7 7 7 3 4 4 1 4 2 5 5 3 4 7 9 11 10 8 6 8 10 11 12 13 12 12 11 10 13 16 18 18 17 16 18 16 14 13 12 14 15 14 13 10 10 9 9 11 11 11 9 10 9 9 8 8 7 7 6 5 6 7 6 6 6 6 5 6
4 1 2 2 3 3 5 4 2 5 4 5 4 5 5 7 8 8 6 7 7 4 8 2 3 5 4 6 6 1 4 5 8 10 10 8 7 7 9 10 11 13 13 13 12 12 14 14 14 15 16 18 16 13 14 14 15 14 12 13 12 12 11 10 11 12 11 11 11 10 9 9 6 7 7 6 7 7 6 8 6 6 6 5 5 5
2 6 5 6 4 7 5 5 4 6 3 7 6 0 4 4 5 6 6 6 6 2 7 7 4 4 6 5 5 5 7 10 10 12 11 7 6 5 6 7 7 7 9 11 14 14 13 14 14 14 15 14 15 14 15 13 10 10 10 13 14 13 11 10 12 12 12 11 11 11 10 11 8 6 6 7 8 8 7 8 7 6 6 5 5 5
5 2 3 2 4 5 5 5 5 5 9 3 4 5 4 1 4 3 5 4 3 5 9 9 7 6 7 4 8 8 8 10 10 8 6 4 3 4 6 8 8 9 8 9 10 11 13 13 13 12 13 12 7 6 9 11 12 12 12 13 14 13 11 11 12 12 13 11 11 11 11 11 11 10 9 8 8 8 7 8 7 7 6 5 6 5
4 3 3 3 6 4 3 4 3 5 4 1 1 2 5 7 0 1 1 3 4 6 8 7 8 8 9 2 6 7 7 8 9 9 8 6 5 4 5 6 7 7 8 9 10 11 11 10 11 10 10 8 8 7 9 10 11 12 12 12 13 12 12 11 11 12 12 11 11 10 11 12 11 12 10 11 11 9 9 8 8 6 6 5 5 5
3 7 6 6 5 10 3 4 6 3 1 3 3 1 2 4 2 2 2 3 5 8 5 5 5 2 10 5 5 7 9 9 7 7 7 7 6 4 4 5 7 7 6 8 10 10 10 12 13 13 12 11 11 12 12 13 13 13 12 13 15 14 12 12 12 12 12 11 11 11 11 10 10 11 11 11 10 9 9 8 7 8 7 6 6 5
7 3 1 5 4 7 8 7 3 3 5 5 5 5 5 4 1 3 4 2 2 3 3 1 6 7 3 5 14 15 12 11 11 9 8 8 7 6 6 6 5 6 6 7 8 10 11 12 12 13 14 15 14 14 14 13 13 12 12 13 14 14 13 12 12 13 12 12 12 11 11 10 10 10 11 10 10 9 8 8 9 9 8 8 8 7
6 7 6 4 2 3 9 11 8 6 4 6 3 7 6 3 2 2 4 5 6 6 5 7 4 5 5 5 9 15 14 13 12 10 8 7 7 7 4 4 4 5 6 7 8 10 11 12 12 13 14 14 14 15 15 14 14 13 13 14 15 14 14 14 14 12 13 12 11 10 10 10 9 10 9 9 9 10 9 8 9 8 7 8 6 7
8 8 7 6 2 1 5 2 2 3 5 3 2 5 2 5 3 5 4 0 2 6 5 1 5 5 8 3 4 5 5 7 8 8 6 7 6 5 2 4 5 6 7 7 8 10 12 12 13 13 13 14 14 16 15 16 14 14 15 16 16 17 15 14 13 13 13 12 10 10 11 11 11 9 9 8 8 8 9 9 10 9 9 7 7 6
1 5 3 5 3 4 6 3 3 5 4 3 6 8 8 4 4 3 3 2 1 4 5 2 3 7 7 6 6 5 4 7 5 5 5 8 7 1 3 4 5 7 7 8 10 11 13 13 13 14 16 14 14 15 16 17 17 18 17 16 16 14 13 14 15 14 12 11 11 11 11 11 11 12 12 10 10 10 8 8 7 8 8 7 7 7
5 6 2 1 6 6 6 6 5 5 5 2 5 9 2 4 4 2 4 2 1 4 5 1 7 5 7 8 3 3 3 6 5 4 3 3 2 0 2 4 5 5 7 9 11 12 14 16 17 15 14 15 17 18 17 18 18 17 17 17 18 15 16 15 14 14 13 12 11 11 12 12 12 12 11 10 11 9 9 8 7 7 8 8 8 8
4 8 6 7 9 4 1 3 2 5 3 6 5 2 8 2 5 3 1 2 2 1 3 1 2 3 8 7 2 3 6 3 4 3 3 3 4 4 3 1 3 6 5 5 8 10 11 13 15 16 16 15 15 17 19 19 18 16 15 14 16 18 18 16 12 11 10 12 11 10 12 12 11 10 10 9 10 9 10 10 9 10 9 8 8 8
1 3 5 1 2 1 1 3 6 6 2 3 2 5 1 3 2 1 3 1 3 3 1 5 1 6 4 5 5 4 2 1 2 4 3 2 3 4 4 3 2 4 4 6 8 10 12 14 16 17 17 16 16 15 14 14 13 15 16 15 14 12 10 12 13 13 13 12 11 10 10 10 10 11 11 11 11 10 10 10 11 10 9 9 8 8
3 3 5 2 2 2 1 2 5 7 6 2 3 4 3 1 1 4 3 3 3 3 3 2 1 5 6 5 4 2 3 4 2 2 2 3 3 3 5 4 3 3 5 5 8 10 13 14 15 16 16 16 16 15 14 14 17 16 15 14 14 15 15 15 14 13 12 12 11 12 13 12 11 11 10 10 11 11 10 10 10 9 8 9 9 9
2 3 7 3 4 5 6 4 4 5 5 6 7 7 6 5 5 5 6 0 2 2 3 3 4 7 9 3 5 6 1 3 1 0 2 4 4 4 6 6 4 3 5 7 8 9 12 13 15 16 15 14 14 15 15 13 13 13 14 14 14 14 13 14 14 14 13 12 12 13 13 12 11 10 9 11 11 11 10 10 10 10 10 9 9 9
5 2 2 7 8 8 8 5 4 4 3 2 4 2 1 2 2 3 3 5 1 4 3 2 0 6 5 1 2 3 1 1 1 0 3 4 5 5 6 7 7 5 7 7 7 9 11 13 15 16 17 17 17 16 16 15 15 15 16 15 14 15 15 16 15 13 12 12 12 13 12 12 11 11 11 12 10 11 11 10 10 10 11 9 8 8
7 2 5 8 5 8 10 8 9 8 4 4 3 5 3 4 7 8 5 4 3 2 1 1 2 4 3 2 2 4 4 2 1 1 4 5 4 5 6 8 9 7 5 4 4 6 9 12 13 14 15 16 15 15 16 16 15 15 15 15 14 16 15 13 12 13 13 12 12 13 12 12 11 12 12 12 10 12 11 10 10 10 9 9 9 8
4 3 4 4 2 2 2 1 1 1 2 3 3 4 7 6 6 5 3 2 1 3 2 2 6 4 5 3 4 4 3 5 5 3 2 5 6 6 7 8 8 8 7 7 6 5 8 11 13 15 15 15 15 15 16 16 16 16 16 15 15 15 14 13 12 13 13 13 13 13 13 13 12 12 12 12 10 12 11 11 10 9 11 11 10 9
5 2 5 4 7 5 2 3 5 4 7 3 3 5 5 10 9 2 6 3 4 4 3 3 6 7 7 10 13 14 8 10 8 8 7 3 4 8 11 10 11 9 8 8 9 5 9 13 13 13 13 14 14 15 15 16 16 16 16 17 16 15 14 14 13 14 14 13 13 13 14 13 12 13 13 12 11 11 11 10 10 9 8 10 11 9
2 3 6 9 8 9 8 3 0 2 3 4 3 8 6 6 7 4 3 4 10 4 5 8 8 7 10 7 8 9 10 9 11 13 13 11 8 6 6 8 9 9 7 8 9 9 8 10 13 15 15 16 16 16 15 16 17 16 16 17 15 14 14 14 14 14 14 14 14 14 14 14 13 12 12 11 11 10 10 10 9 9 8 8 10 11
1 4 10 10 13 14 13 6 5 2 1 2 3 5 7 6 5 6 6 9 3 5 8 3 4 5 7 4 6 8 9 9 10 9 10 10 9 10 11 9 11 9 7 8 10 11 10 12 14 15 16 17 17 17 16 16 17 17 18 18 16 15 14 12 14 15 14 14 14 14 14 13 12 12 12 10 10 10 10 9 8 9 9 9 9 9
3 4 3 8 14 14 12 12 6 6 7 5 3 3 6 8 7 10 11 5 2 6 10 3 4 5 6 6 9 9 9 11 11 11 10 8 9 11 10 10 10 9 8 9 11 11 12 12 14 16 17 17 18 18 18 16 15 14 14 14 15 15 16 15 16 15 15 14 14 14 13 12 11 10 10 11 11 10 10 10 10 10 10 10 9 7
1 6 3 5 11 12 12 11 7 8 7 6 5 4 4 5 10 12 8 4 7 8 6 6 8 12 11 10 11 12 11 9 9 7 7 8 11 13 11 11 7 7 8 10 12 12 13 15 15 16 17 16 18 18 17 16 15 16 16 15 14 14 13 14 15 15 15 15 14 13 13 12 11 11 11 11 12 11 11 11 11 10 10 9 9 9
3 4 4 5 3 6 8 6 5 7 5 6 7 7 7 8 9 10 7 8 7 8 9 9 10 15 13 11 11 10 8 6 5 8 11 12 12 12 11 7 8 7 9 10 12 12 14 15 16 15 16 17 18 18 17 16 16 16 16 15 15 16 15 15 15 15 15 14 13 13 13 12 12 12 12 12 12 11 12 11 10 10 10 10 10 10
5 4 1 3 2 4 0 3 5 4 4 4 6 6 8 9 9 8 8 8 6 9 7 7 8 12 16 1 4 6 7 6 9 11 11 10 10 7 7 10 11 12 11 10 11 11 14 15 15 15 16 16 17 18 17 16 15 15 16 16 16 15 14 15 15 15 15 14 13 14 14 12 12 12 12 12 12 12 12 11 11 11 10 10 9 8
5 3 3 1 3 3 2 3 4 7 3 3 10 14 15 13 10 7 9 10 15 13 9 10 16 13 4 2 6 10 10 11 10 10 12 11 5 5 7 11 14 15 15 12 12 12 14 15 15 16 16 16 16 17 17 17 16 16 16 16 15 14 15 15 15 15 14 14 14 15 14 13 13 12 12 11 12 12 12 12 11 10 10 10 9 9
4 5 5 2 3 2 3 1 1 5 1 5 5 6 14 16 16 11 11 14 13 10 10 10 12 8 4 5 9 13 13 13 12 12 4 4 7 10 12 13 14 15 14 13 12 12 13 12 12 14 16 17 17 18 17 17 17 16 16 16 15 16 16 16 15 14 14 14 14 15 14 14 13 12 12 11 10 10 12 13 13 11 10 9 9 9
4 3 5 3 2 2 1 2 3 1 7 4 7 6 9 10 9 16 10 8 10 13 14 11 11 9 12 10 10 11 12 14 12 11 10 8 5 7 13 17 17 15 14 13 12 11 12 13 14 14 13 13 14 13 12 12 13 12 12 13 14 15 15 15 14 14 14 14 14 14 14 15 14 13 12 13 12 11 10 11 11 12 10 10 11 11
3 4 2 3 2 0 1 2 1 3 2 4 7 6 5 7 3 1 8 8 6 7 6 8 11 11 10 11 13 11 9 11 11 7 6 12 9 8 12 13 16 15 13 12 12 10 11 13 14 15 16 13 12 12 13 14 13 13 13 13 13 13 14 14 14 14 14 14 14 14 15 15 14 13 13 13 13 13 11 10 11 12 10 9 7 7
10 4 0 3 0 3 1 2 5 4 3 5 7 7 8 4 0 5 6 7 3 2 3 6 10 11 12 11 7 6 7 7 8 11 9 14 10 9 11 13 13 15 12 12 10 10 11 11 11 12 11 11 13 13 14 13 13 13 13 13 13 13 13 13 14 14 15 15 14 14 14 14 14 13 13 13 13 14 14 13 10 9 10 10 9 10
2 1 1 1 2 1 3 3 5 4 1 3 2 5 8 11 4 2 1 2 1 4 4 3 5 6 7 6 6 5 4 6 10 10 12 10 6 6 8 10 12 13 12 11 8 7 9 9 9 10 13 14 13 14 12 12 14 14 13 13 13 13 13 14 14 14 14 14 14 14 14 14 14 14 13 13 14 13 12 12 11 11 10 11 10 10
2 1 0 1 3 3 2 1 1 0 1 1 10 14 12 4 2 3 3 2 3 2 3 6 8 7 6 5 7 5 6 5 10 12 14 4 6 1 8 11 12 13 12 10 9 10 12 13 15 14 13 13 13 12 11 12 13 13 14 14 13 13 13 15 14 14 14 14 13 13 13 13 13 14 14 13 13 13 13 12 12 11 10 9 9 11
2 3 4 3 2 1 1 1 3 2 0 5 9 10 13 6 3 4 1 2 3 8 8 7 8 8 9 6 5 4 2 5 10 13 11 12 11 7 7 12 11 9 5 3 3 3 7 9 10 11 13 14 14 13 14 13 12 13 13 13 13 13 14 15 15 14 13 13 12 12 12 11 12 13 14 14 12 8 8 9 11 11 11 9 8 9
6 4 3 4 2 2 2 3 2 3 2 5 6 12 10 3 0 2 2 3 8 11 10 9 11 8 5 7 3 5 7 8 11 14 17 17 17 15 7 8 8 3 0 4 6 7 8 9 13 15 17 15 14 13 13 12 11 12 12 12 13 15 16 13 11 12 13 13 13 12 12 12 13 13 12 13 14 14 13 11 11 12 12 11 9 9
7 2 2 0 5 3 1 1 3 4 4 3 10 11 6 1 1 1 4 5 9 12 11 8 11 9 6 8 8 7 10 11 14 16 16 15 11 12 11 8 3 1 2 3 7 9 8 9 9 8 8 10 13 12 11 12 12 11 11 12 14 14 9 10 12 12 12 14 14 13 13 13 12 14 12 10 10 12 11 10 10 12 12 11 11 12
6 6 8 7 4 1 1 4 1 3 2 5 13 9 3 3 2 4 9 12 8 9 10 9 7 8 6 11 10 8 10 13 13 14 16 14 11 14 13 4 5 6 5 5 5 6 10 8 9 10 9 8 11 13 13 13 13 12 11 13 11 9 11 12 12 12 13 12 13 13 13 12 14 12 10 12 12 12 11 10 10 9 9 11 11 12
2 4 4 2 3 5 6 8 5 5 8 11 5 4 5 5 5 8 9 11 8 5 7 8 7 8 7 8 11 13 12 11 14 15 17 16 18 19 13 7 4 5 5 4 5 5 7 8 9 10 12 12 8 5 9 13 13 11 11 11 9 11 12 13 13 13 13 13 13 12 12 12 12 12 11 12 11 10 11 10 9 9 9 10 11 10
2 3 3 7 5 2 6 4 8 6 6 10 5 5 6 8 5 6 8 9 10 9 7 10 11 9 9 8 11 10 10 9 9 8 11 15 16 16 12 8 3 3 6 9 8 6 5 7 7 7 5 7 13 11 9 10 13 12 12 10 12 13 14 14 14 14 13 13 12 12 11 11 11 11 11 11 11 11 10 10 10 9 8 10 10 10
4 2 2 2 4 4 8 10 9 7 10 10 8 3 6 7 5 6 7 8 8 9 8 8 10 10 11 8 10 7 7 8 9 11 12 13 13 12 10 9 4 2 3 5 7 7 8 10 10 11 11 10 10 9 10 10 9 10 10 11 12 14 14 15 14 14 13 11 12 12 12 12 11 11 12 12 11 12 12 13 12 11 10 9 10 10
5 4 6 5 3 6 6 3 5 11 11 8 8 10 5 5 8 6 7 8 10 8 8 7 7 9 9 8 6 7 10 9 8 7 7 10 7 6 8 6 6 5 3 2 1 4 7 10 11 11 12 12 11 10 9 12 15 17 14 14 13 13 13 13 14 13 13 12 11 12 12 14 12 10 10 11 10 9 9 10 10 11 11 10 10 10
7 7 10 4 14 2 5 14 9 11 7 4 4 5 9 11 13 12 8 7 6 7 7 8 7 5 5 4 5 4 5 5 5 6 7 7 8 7 7 8 8 8 8 6 4 2 2 5 8 9 11 12 11 12 13 14 14 13 13 13 12 13 14 13 14 14 13 13 12 11 13 12 14 15 11 11 11 10 9 9 10 11 12 12 11 10
9 8 6 12 7 10 8 3 9 13 2 2 8 7 7 8 10 14 13 13 11 11 12 11 4 5 3 6 5 5 5 8 8 9 9 8 8 8 8 7 7 7 7 4 3 2 2 2 3 6 7 8 8 9 10 10 10 12 13 12 12 12 14 13 12 13 13 12 11 11 11 12 13 11 12 11 11 10 12 13 12 12 10 9 10 12
9 9 12 9 8 8 6 12 12 11 9 12 11 11 11 11 11 12 12 14 14 13 12 13 14 8 6 6 6 6 6 6 8 7 7 6 6 8 8 8 6 5 4 2 1 1 1 3 6 7 8 7 8 8 9 12 13 14 15 15 14 13 12 13 12 11 12 11 12 12 12 11 11 12 11 11 11 10 5 8 5 5 9 9 8 10
4 10 8 6 5 6 12 15 12 7 8 6 10 10 9 9 11 12 12 12 11 9 10 10 13 12 11 9 8 8 7 6 7 6 6 6 7 6 5 5 5 4 4 2 2 2 2 3 5 8 7 9 9 10 11 12 13 14 15 15 14 13 12 12 11 10 10 11 11 12 11 11 11 10 10 10 11 10 10 7 6 10 8 8 8 9
Wind_Direction
90 156 218 221 81 155 231 203 216 266 286 282 287 272 250 256 279 284 291 272 15 327 261 252 269 278 282 258 266 264 282 264 249 219 225 230 207 199 203 202 201 204 214 217 205 152 161 161 155 154 160 167 171 173 173 175 182 180 174 168 179 174 175 179 182 185 184 184 178 182 188 185 178 174 169 171 166 167 161 149 146 147 147 151 145 140
52 316 270 258 189 199 225 225 251 326 301 268 277 285 284 230 268 247 272 299 307 337 284 291 298 289 272 281 268 266 259 257 239 218 224 222 222 208 197 205 204 207 221 175 131 149 146 158 160 161 164 165 171 185 181 183 183 175 172 176 179 176 179 185 186 185 189 193 193 180 179 165 164 166 174 177 168 168 150 145 145 146 150 150 146 148
271 245 292 242 215 221 244 246 211 204 243 247 231 246 275 258 246 262 254 247 275 260 264 276 275 279 276 272 281 254 239 243 236 210 208 206 217 225 216 202 201 205 216 183 162 158 168 164 163 164 170 178 180 177 181 179 175 181 180 183 180 180 178 185 186 184 188 182 170 163 150 153 148 174 177 171 168 154 142 139 141 143 149 147 145 149
308 301 240 246 171 155 280 203 234 265 250 223 242 257 246 241 297 293 273 280 279 197 269 300 300 287 260 256 255 258 231 244 246 230 223 198 204 213 215 210 199 200 202 184 178 178 171 168 168 168 173 177 173 174 178 180 186 187 186 181 179 181 181 182 186 184 177 160 148 137 143 147 154 163 150 116 122 124 123 129 135 141 147 149 146 151
229 228 221 132 125 167 254 271 187 208 265 218 219 233 247 215 215 212 259 332 300 281 234 271 292 283 267 244 269 270 261 264 277 282 269 263 243 221 216 212 210 198 193 190 188 179 174 172 175 178 177 172 175 180 184 186 186 190 187 180 178 178 181 183 182 178 161 145 136 131 126 128 95 77 125 132 138 146 145 135 138 151 151 150 148 150
279 256 243 265 256 220 216 257 234 187 237 275 217 207 228 224 235 241 265 322 330 300 246 157 271 267 264 242 227 249 262 260 249 246 262 230 222 229 226 218 223 226 203 187 188 184 182 183 181 176 172 177 179 183 190 190 189 181 180 178 177 177 181 182 180 171 164 165 159 155 159 163 163 159 173 187 171 150 146 147 143 143 153 151 149 149
233 286 149 202 222 241 213 222 229 155 209 193 267 202 220 224 220 232 252 190 249 239 288 162 222 268 328 301 241 247 253 243 255 243 251 245 217 218 215 211 213 213 213 227 203 184 181 186 180 180 178 180 183 190 185 184 185 183 178 179 177 178 180 179 175 169 169 170 174 174 173 173 182 182 184 136 142 150 144 141 141 145 147 147 144 145
143 251 169 177 190 217 232 245 253 167 183 232 241 181 204 207 216 230 226 204 238 262 296 327 163 237 289 282 274 238 242 263 266 256 250 249 229 213 220 211 208 211 206 200 202 198 192 183 182 183 185 184 192 186 177 180 181 183 183 177 177 178 179 176 171 176 177 175 176 176 173 175 180 181 164 150 143 133 134 142 146 143 142 137 138 141
165 276 195 207 205 214 227 208 230 162 158 217 256 200 220 203 218 227 205 219 235 231 272 240 277 272 241 254 257 198 273 286 273 263 255 248 241 223 227 223 215 209 204 196 198 196 192 194 195 189 186 194 189 177 177 180 185 183 176 174 174 179 175 174 175 178 182 177 175 174 170 174 175 154 147 142 139 138 140 139 143 139 134 130 134 139
277 211 220 211 217 247 213 219 192 161 213 263 258 274 223 218 229 215 209 217 245 191 253 240 194 235 260 258 207 246 251 256 251 256 258 248 243 231 233 240 235 229 212 206 200 194 195 196 194 194 197 193 190 183 179 178 167 171 175 177 177 181 175 173 179 182 182 178 172 175 176 168 157 145 137 141 145 146 147 143 143 138 136 135 131 138
245 276 219 175 208 210 211 226 209 204 223 262 349 296 304 277 224 227 203 191 239 244 238 229 213 183 267 224 191 197 222 230 249 263 268 271 269 247 225 226 220 212 211 206 204 201 197 194 192 188 193 196 177 177 174 166 171 174 179 181 181 179 173 177 180 180 182 178 178 177 173 167 159 154 149 146 150 147 149 147 145 146 140 139 140 139
263 257 254 241 210 224 174 264 220 203 214 189 270 302 340 322 36 123 272 150 196 246 243 220 217 179 231 295 236 219 230 225 225 244 259 263 248 247 230 232 233 222 208 201 200 203 198 188 189 184 188 168 173 159 169 175 171 177 182 181 178 177 180 178 178 181 181 178 181 177 172 170 165 159 163 163 156 160 156 151 148 139 133 137 136 138
284 233 234 255 189 186 202 224 262 230 183 181 215 191 152 264 36 305 139 243 215 219 243 194 165 257 242 232 245 246 240 249 238 226 239 248 250 238 244 232 229 223 215 205 203 198 194 192 187 185 179 170 168 177 176 180 180 179 181 182 179 182 179 179 178 182 180 181 182 178 175 170 163 165 166 166 163 164 162 158 148 149 151 145 147 158
270 287 285 265 344 203 188 212 209 234 219 197 194 181 181 229 240 251 264 207 251 280 268 195 195 231 227 255 226 238 237 228 239 234 232 240 239 236 223 229 221 222 213 210 204 201 197 195 193 187 179 180 178 176 180 181 179 180 183 183 184 183 180 176 180 181 181 186 182 177 174 169 166 169 167 168 166 168 165 163 161 162 159 164 166 163
310 331 269 157 254 218 193 207 197 191 170 197 168 181 188 178 151 246 199 211 208 212 223 206 117 235 171 245 205 218 227 233 236 235 231 237 239 244 222 218 224 229 230 212 200 200 201 201 192 186 187 184 180 181 181 180 182 181 182 183 186 182 182 180 182 181 184 183 181 177 174 169 169 169 171 170 167 164 163 168 161 159 156 161 164 161
225 239 246 215 180 74 194 239 152 191 248 210 158 82 69 229 128 257 213 250 242 210 243 166 193 191 196 238 259 228 249 249 236 235 232 245 244 238 209 209 223 220 222 217 209 202 202 202 196 191 192 188 183 182 182 182 181 183 185 186 188 185 180 179 179 186 183 182 178 176 175 172 169 168 166 164 164 166 165 164 163 159 161 158 146 144
304 261 262 316 267 221 228 164 209 143 186 224 185 219 216 190 155 253 336 275 110 30 265 181 238 268 304 311 258 266 250 243 245 253 225 228 241 200 195 216 226 221 216 214 209 202 202 201 201 199 193 188 186 184 185 184 183 185 185 185 186 183 178 182 186 182 180 179 176 180 176 170 171 170 172 169 165 161 156 154 154 151 152 143 147 149
235 266 275 120 277 260 230 192 206 192 160 113 193 215 133 88 76 179 238 331 210 173 249 115 183 208 213 257 306 269 220 259 255 233 251 287 342 340 212 226 235 234 225 218 216 211 202 199 199 200 201 194 188 186 187 187 186 187 187 185 183 179 181 187 182 180 179 177 179 178 179 178 175 175 173 166 161 153 147 144 137 137 142 159 154 149
151 283 279 230 247 279 71 121 321 266 192 179 193 185 172 228 207 245 95 287 250 231 264 299 250 237 186 225 347 211 215 279 331 331 37 3 346 325 307 264 244 248 245 229 227 226 219 208 203 201 198 195 195 192 190 188 184 183 184 186 185 185 187 179 176 177 178 179 180 180 181 178 177 175 170 166 157 153 154 153 151 156 159 148 149 149
184 229 288 296 175 236 39 111 214 248 299 195 359 297 165 145 173 86 203 191 106 254 65 278 67 223 213 212 218 241 178 205 29 22 1 285 295 299 285 262 230 251 234 229 223 219 216 213 207 203 198 193 192 194 194 187 182 182 184 182 185 182 172 170 176 179 181 181 177 178 175 180 179 175 171 166 158 159 159 157 157 157 156 159 155 152
252 155 258 282 295 329 201 182 211 178 188 166 147 232 182 157 154 120 312 172 167 191 176 187 286 280 259 215 181 240 146 133 117 24 295 271 268 256 262 268 239 227 252 239 230 222 216 212 210 207 202 196 191 190 188 186 183 183 181 182 180 177 179 180 181 178 179 173 179 175 179 180 178 177 171 164 162 159 159 157 158 158 149 154 156 152
207 184 233 277 333 253 244 234 189 179 167 167 177 209 202 174 154 176 248 297 176 106 233 119 245 264 268 221 184 149 178 142 155 195 293 295 291 295 300 292 271 239 237 244 237 226 217 212 207 206 202 196 188 188 184 179 182 182 181 183 182 179 180 179 180 182 177 175 175 179 180 179 177 173 170 164 163 161 158 156 155 150 159 164 157 153
190 159 228 240 224 240 231 251 205 175 150 171 137 259 212 218 134 144 176 263 351 241 152 185 333 273 245 228 138 119 184 146 213 192 281 290 288 295 288 284 284 252 246 247 242 226 219 211 204 200 197 194 191 186 179 178 182 182 183 183 182 182 187 183 180 176 172 173 175 178 175 172 176 174 171 166 167 164 159 155 151 162 165 160 140 147
172 255 232 256 263 265 265 255 249 242 238 298 254 205 236 238 202 204 198 194 165 299 341 360 209 247 274 238 258 327 327 294 217 209 273 277 285 282 282 288 291 289 268 258 250 226 221 214 206 199 196 194 190 183 181 181 180 182 185 184 182 187 183 176 172 173 173 174 175 172 170 173 173 173 173 171 170 166 159 151 156 164 151 138 154 147
185 194 207 277 290 264 294 22 244 350 162 187 205 208 199 227 264 243 180 61 289 237 162 121 234 266 278 290 268 246 310 335 328 286 214 284 301 299 297 296 294 294 299 317 329 256 222 213 207 202 195 191 187 184 182 182 182 182 184 183 185 186 178 173 171 171 174 171 169 170 172 173 172 174 174 172 169 166 155 156 159 155 153 153 147 148
226 181 146 210 231 255 228 222 216 203 184 206 221 194 193 195 218 182 221 164 208 270 185 199 254 246 289 328 335 327 340 333 320 311 302 235 253 300 309 301 300 300 303 313 315 276 219 213 208 199 190 188 187 184 183 183 184 183 184 186 185 178 171 173 172 174 171 169 168 172 173 172 172 175 174 170 167 162 157 156 157 152 153 151 141 142
239 196 201 219 233 245 248 194 289 114 110 175 225 186 210 205 200 190 97 143 212 206 197 229 232 301 299 307 309 310 318 313 311 311 310 317 310 287 262 273 283 290 300 315 307 278 222 206 203 198 190 186 184 184 185 184 184 183 183 184 181 176 174 172 171 172 171 171 172 172 174 172 175 174 171 169 162 156 153 155 152 140 128 132 149 150
220 247 221 224 240 248 258 245 185 103 11 254 164 213 196 189 180 183 181 216 164 94 254 252 228 253 266 278 272 286 293 294 289 289 297 302 300 293 289 285 284 291 309 323 312 285 232 209 199 194 192 187 185 185 185 185 184 182 182 181 179 174 172 170 171 171 172 171 174 175 174 173 171 171 169 163 157 155 151 145 139 136 142 151 152 154
193 247 232 179 246 247 252 260 218 162 218 243 203 197 215 199 174 193 227 224 143 181 224 246 241 254 267 252 260 260 261 269 278 285 281 279 287 288 282 279 285 298 322 324 303 273 233 210 203 196 191 189 184 184 184 182 183 182 181 179 178 174 174 171 170 171 171 172 175 176 171 165 166 167 162 159 154 148 144 143 149 154 151 156 158 153
98 251 236 189 254 263 258 249 242 196 198 215 229 221 222 221 207 204 218 213 227 253 243 253 272 266 262 262 257 256 260 268 276 278 286 287 277 272 269 267 284 316 313 304 293 260 223 209 203 197 190 187 185 183 182 181 181 179 177 176 174 174 173 167 171 171 171 174 175 168 162 161 162 164 160 157 155 149 146 148 152 152 154 158 154 152
190 265 171 187 251 275 265 244 202 187 182 213 227 215 211 215 219 206 194 215 218 248 256 262 269 273 262 231 242 259 272 282 291 281 268 266 263 255 254 290 320 300 288 285 284 248 217 206 202 196 190 188 185 183 180 180 181 179 177 174 174 174 172 169 170 172 172 172 166 160 156 158 163 162 163 162 153 149 150 153 155 158 157 156 153 152
187 281 58 173 192 284 213 128 157 162 171 224 259 229 214 194 205 207 201 204 193 223 228 240 260 257 259 183 233 255 267 270 268 271 271 261 246 257 323 325 303 285 274 271 271 239 213 202 197 192 190 187 186 183 180 178 178 176 177 174 175 174 170 170 170 172 172 166 159 158 158 161 161 163 164 159 155 152 154 156 156 157 156 153 153 150
194 249 288 214 233 216 293 73 117 126 105 314 262 240 211 206 204 195 211 197 209 204 209 214 231 238 295 19 300 282 268 264 265 261 271 275 283 339 324 296 282 276 274 272 270 238 212 200 193 189 187 185 185 183 182 176 175 178 176 175 175 167 169 171 171 170 167 162 160 161 160 159 162 164 160 158 157 155 151 154 156 154 153 161 158 148
209 245 277 303 283 333 28 37 120 111 215 231 239 209 192 198 192 192 205 208 217 188 219 218 241 262 279 279 255 258 263 260 258 270 258 275 316 317 298 282 272 264 264 261 257 241 213 196 189 189 187 186 185 184 180 176 178 180 177 173 167 168 173 171 169 166 163 161 162 161 160 160 163 164 159 151 150 155 158 158 161 161 159 152 150 155
260 243 262 257 312 293 23 67 77 273 237 262 281 292 211 211 204 201 215 216 216 215 228 242 251 255 253 251 260 263 265 273 279 282 293 279 257 258 267 274 275 266 250 245 246 232 207 193 186 182 182 185 183 178 171 176 178 170 167 166 170 173 171 169 165 163 160 161 162 159 160 161 163 162 158 156 154 157 161 164 157 156 156 157 162 159
248 244 252 286 172 271 46 58 78 236 234 260 278 359 50 135 146 1 305 273 240 228 238 263 268 273 279 280 275 278 283 282 284 273 272 284 267 250 256 256 260 262 256 237 232 221 200 191 185 180 181 176 169 171 174 178 172 167 170 169 172 172 170 166 163 162 159 159 162 162 162 162 162 161 159 159 158 158 161 165 163 157 153 153 158 151
246 270 89 297 300 348 311 195 235 291 311 4 7 3 354 327 211 161 217 267 252 208 190 242 264 270 273 273 280 289 291 296 311 302 298 276 266 241 231 243 249 258 251 243 228 222 191 185 181 177 163 161 170 172 179 173 168 170 166 172 173 169 167 163 163 163 164 164 164 163 163 162 160 161 161 159 162 165 163 161 161 157 150 151 160 151
264 217 260 327 322 105 318 332 342 17 351 288 209 227 244 253 240 250 168 300 326 28 351 288 270 284 283 265 257 284 311 348 312 293 273 269 196 215 245 254 263 259 250 239 229 214 180 170 158 153 161 166 174 178 173 167 168 167 169 176 172 167 166 166 168 167 165 164 163 162 161 161 160 160 161 161 164 168 166 161 157 157 156 157 160 156
29 66 212 178 295 340 10 40 258 180 265 236 338 329 321 338 249 184 131 257 232 175 265 267 272 244 239 291 322 340 18 339 283 277 274 223 196 231 309 285 259 252 244 228 214 190 166 162 159 159 160 162 169 170 164 166 168 170 176 175 170 169 169 172 169 165 165 161 158 157 159 159 160 161 161 166 168 165 164 165 163 155 157 161 162 155
327 345 358 58 6 16 298 302 312 205 289 342 304 316 328 348 135 138 98 271 268 327 310 297 300 321 332 329 315 302 235 265 272 277 290 304 308 312 284 283 267 266 264 217 201 192 146 127 126 143 155 164 170 163 165 166 171 178 178 175 168 170 175 176 173 168 156 149 152 156 156 158 159 162 164 165 161 151 149 152 147 153 155 156 156 154
0 341 29 11 334 301 4 310 297 316 251 230 282 335 323 346 86 72 192 260 311 314 311 314 304 297 301 298 282 277 235 232 270 284 297 302 310 313 302 264 250 261 18 91 90 111 133 147 155 165 169 170 162 162 164 167 174 180 176 173 173 180 182 171 155 150 151 149 151 155 157 158 162 160 165 166 159 160 158 163 164 157 157 153 153 152
351 326 255 188 4 349 292 261 260 232 238 248 332 340 297 108 62 218 260 285 296 296 299 297 294 300 301 285 270 252 270 273 274 283 287 295 305 301 314 285 213 52 8 86 128 136 149 155 158 162 158 150 154 152 157 163 177 176 175 175 184 183 152 140 145 145 145 149 153 155 157 159 164 161 158 156 160 156 158 161 161 161 157 151 153 157
316 335 349 350 316 259 339 330 8 19 270 330 341 323 30 57 223 276 296 292 272 271 285 294 283 287 284 291 286 283 288 295 293 295 305 309 315 323 326 272 197 171 141 130 129 151 151 154 151 150 146 138 145 153 172 166 173 174 173 183 176 142 137 139 141 142 144 147 152 157 159 162 161 158 159 160 163 159 152 149 149 154 153 150 154 157
286 328 336 324 348 338 358 5 356 273 279 312 18 312 313 302 292 290 296 300 307 283 297 306 295 281 284 282 298 302 300 303 313 328 319 321 331 329 314 291 217 175 155 153 143 140 137 138 150 147 140 137 143 161 171 169 170 167 173 170 138 137 134 138 140 142 148 153 155 157 160 160 160 157 156 157 154 150 145 145 149 152 157 156 155 156
38 348 306 314 323 8 310 260 254 283 300 292 311 269 278 281 288 287 295 302 317 321 321 312 308 305 292 291 288 292 303 308 313 315 318 319 320 311 301 311 303 199 160 151 148 139 111 105 114 115 120 129 139 155 181 173 161 155 158 151 145 143 144 144 146 149 155 159 161 160 156 155 156 158 157 153 150 147 150 147 149 153 162 159 159 161
303 331 304 276 270 263 251 243 275 306 301 311 312 285 295 302 280 273 298 317 317 310 309 294 290 288 293 301 305 312 305 317 324 331 328 313 299 290 320 335 358 55 141 140 147 141 132 128 125 125 124 123 143 179 179 166 150 151 155 151 152 149 147 147 149 153 159 162 160 156 152 154 155 156 154 153 157 158 160 158 161 162 164 165 166 169
309 328 336 289 295 1 315 322 344 320 318 305 318 318 314 273 297 302 319 320 309 306 306 292 283 288 290 295 300 310 316 328 323 306 272 250 268 320 335 330 349 24 45 68 107 141 130 128 125 131 137 143 145 143 147 158 164 166 163 163 159 149 144 149 152 154 157 158 156 151 152 154 156 153 153 154 154 157 159 160 160 160 161 168 169 168
325 345 319 323 323 296 285 315 320 318 339 308 299 334 340 334 326 325 315 285 278 301 309 307 304 294 278 290 325 308 281 270 268 287 306 331 349 349 347 358 4 12 24 23 13 348 53 98 123 137 149 159 164 167 168 172 170 160 153 148 146 147 154 157 157 158 160 158 154 156 157 157 153 152 155 157 155 154 157 165 164 162 169 174 172 166
286 311 339 328 302 295 288 279 325 323 168 3 341 342 330 317 319 321 327 335 348 353 337 321 324 310 330 360 340 317 334 348 343 333 328 342 353 355 353 7 19 22 15 11 351 326 243 207 157 153 170 172 171 170 168 163 157 155 146 142 147 158 158 155 156 153 151 151 151 152 156 155 160 160 158 158 160 167 167 169 172 172 181 183 172 172
341 357 331 331 337 330 336 319 336 346 334 334 349 343 329 325 324 321 328 347 351 352 349 348 340 348 20 17 7 349 357 331 331 323 329 348 358 357 2 3 8 30 39 35 26 356 243 220 199 179 182 179 173 171 168 160 159 160 161 159 155 151 151 149 150 150 153 156 157 156 158 161 164 161 160 159 155 144 92 35 85 167 173 173 176 171
325 322 326 321 303 286 296 307 310 302 279 290 322 330 325 323 329 328 344 340 338 357 342 351 353 350 9 10 24 17 345 328 329 329 348 7 2 359 7 14 13 9 15 26 100 89 134 176 184 179 180 175 173 172 174 171 168 164 163 154 144 146 150 150 148 154 159 161 164 164 161 159 158 158 156 158 155 152 145 133 53 46 80 133 136 144